Location: Krasnoyarskiy Pitomnik
(51.1333°N, 71.6167°E)
Time: 10:03:41
(UTC+00:00)

Altair - Pass Details

Date: 20 April 2024
Orbit: 1502 x 1682 km, 47.2° (Epoch: 23 May)

Event Time Altitude Azimuth Distance (km) Brightness Sun altitude
Rises 15:34:39 0° 247° (WSW) 4,908 10.6 -11.4°
Reaches altitude 10° 15:37:51 10° 245° (WSW) 3,907 10.0 -11.8°
Maximum altitude 15:47:41 66° 166° (SSE) 1,746 7.6 -13.0°
Drops below altitude 10° 15:57:11 10° 87° (E) 3,777 9.1 -14.2°
Enters shadow 15:59:41 - 85° (E) 4,567 9.6 -14.5°
